Flag for United Kingdom Weather past 2 weeks in Haywards Heath, England, United Kingdom

Now
68 °F

Scattered clouds.


Feels Like: 68 °F
Forecast: 57 / 73 °F
Wind: 10 mph from Northwest

Location: London / Gatwick Airport

Current Time: Jul 30, 2014 at 12:27:06 PM

Latest Report: Jul 30, 2014 at 11:50 AM


Visibility: N/A

Pressure: 30.04 "Hg

Humidity: 56%

Dew point: 52 °F

Location of Haywards HeathLocation

Historic Weather in Haywards Heath — Graph

°F

Haywards Heath temperature yesterday

Maximum temperature yesterday: 79 °F (at 3:20 PM)
Minimum temperature yesterday: 61 °F (at 4:20 AM)
Average temperature yesterday: 70 °F

Past Weeks' High & Low Weather Summary

 TemperatureHumidityPressure
High82 °F (Jul 17, 2:50 PM)100% (Jul 17, 3:20 AM)30.21 "Hg (Jul 17, 3:20 AM)
Low55 °F (Jul 16, 3:20 AM)34% (Jul 24, 5:50 PM)29.74 "Hg (Jul 19, 6:50 AM)
Average70 °F70%30.01 "Hg
* Reported Jul 15 11:20 AM — Jul 30 11:20 AM, Haywards Heath, Weather by CustomWeather, © 2014

Note: Actual official high and low records may vary slightly from our data, if they occured in-between our weather recording intervals... More about our weather records

Advertising

Haywards Heath weather history for previous 24 hours

 ConditionsComfort  
Time TempWeatherWind HumidityBarometerVisibility
11:20 AM
Jul 30
68 °FScattered clouds.10 mph53%30.04 "HgN/A
10:50 AM68 °FPassing clouds.9 mph56%30.04 "HgN/A
10:20 AM66 °FScattered clouds.9 mph60%30.04 "HgN/A
9:50 AM66 °FScattered clouds.10 mph60%30.04 "HgN/A
9:20 AM64 °FPassing clouds.7 mph68%30.04 "HgN/A
8:50 AM64 °FPassing clouds.8 mph68%30.04 "HgN/A
8:20 AM63 °FPassing clouds.7 mph73%30.01 "HgN/A
7:50 AM63 °FSunny.8 mph68%30.01 "Hg10 mi
7:20 AM61 °FPassing clouds.6 mph72%30.01 "HgN/A
6:50 AM61 °FSunny.6 mph72%30.01 "Hg10 mi
6:20 AM61 °FPassing clouds.8 mph72%30.01 "HgN/A
5:50 AM61 °FPassing clouds.6 mph72%30.01 "HgN/A
5:20 AM61 °FPassing clouds.7 mph68%30.01 "HgN/A
4:20 AM63 °FClear.6 mph68%30.01 "Hg10 mi
3:50 AM63 °FClear.7 mph68%30.01 "Hg10 mi
3:20 AM63 °FClear.7 mph68%30.01 "Hg10 mi
2:50 AM64 °FClear.10 mph64%30.01 "Hg10 mi
2:20 AM66 °FPassing clouds.9 mph64%29.98 "HgN/A
1:50 AM66 °FPassing clouds.7 mph68%29.98 "HgN/A
1:20 AM66 °FClear.8 mph73%29.98 "Hg10 mi
12:50 AM66 °FPassing clouds.7 mph73%30.01 "HgN/A
12:20 AM66 °FClear.7 mph68%30.01 "Hg10 mi
11:50 PM
Jul 29
66 °FPassing clouds.6 mph68%29.98 "HgN/A
11:20 PM68 °FPassing clouds.8 mph64%29.98 "HgN/A
10:50 PM68 °FPassing clouds.7 mph64%29.98 "HgN/A
10:20 PM70 °FClear.8 mph57%29.98 "Hg10 mi
9:50 PM70 °FSunny.7 mph57%29.98 "Hg10 mi
9:20 PM72 °FSunny.6 mph50%29.95 "Hg10 mi
8:50 PM73 °FSunny.7 mph47%29.95 "Hg10 mi
8:20 PM75 °FSunny.8 mph44%29.95 "Hg10 mi
7:50 PM75 °FSunny.7 mph44%29.95 "Hg10 mi
7:20 PM75 °FPassing clouds.6 mph47%29.95 "HgN/A
6:50 PM77 °FPassing clouds.8 mph44%29.95 "HgN/A
6:20 PM77 °FPassing clouds.7 mph44%29.95 "HgN/A
5:50 PM77 °FPassing clouds.7 mph44%29.95 "HgN/A
5:20 PM79 °FPassing clouds.10 mph42%29.95 "HgN/A
4:50 PM79 °FSunny.12 mph42%29.98 "Hg10 mi
4:20 PM79 °FPassing clouds.7 mph45%29.98 "HgN/A
3:50 PM79 °FSunny.12 mph42%29.98 "Hg10 mi
3:20 PM79 °FPassing clouds.10 mph42%29.98 "HgN/A
2:50 PM77 °FPassing clouds.9 mph44%29.98 "HgN/A
2:20 PM77 °FPassing clouds.7 mph42%29.98 "HgN/A
1:50 PM77 °FSunny.10 mph42%29.98 "Hg10 mi
1:20 PM77 °FSunny.13 mph39%30.01 "Hg10 mi
12:50 PM75 °FPassing clouds.12 mph44%30.01 "HgN/A
12:20 PM73 °FPassing clouds.8 mph50%30.01 "HgN/A
Weather by CustomWeather, © 2014

See weather overviewHow to use our weather pages